PROGRESS-MS 14 (45595 NORAD) Tracking and Keplerian Element Data

This shows tracking and keplerian element data for the satellite.

Feedback or suggestion? Click here.




ElementValue
Catalog45595
NamePROGRESS-MS 14
Epoch Orbit500
Epoch Day148.34098264
Epoch Year2020
RAAN91.6454
Inclination51.6436
Eccentricity0.000256
Argument of Perigee358.6359
Mean Anonmoly138.6822
Mean Motion15.49397476
Decay Rate1.729E-05
L11 45595U 20026A 20148.34098264 .00001729 00000-0 39024-4 0 9990
L22 45595 51.6436 91.6454 0002560 358.6359 138.6822 15.49397476 5006

Live tracking and technical data element details for PROGRESS-MS 14 (NORAD 45595). PROGRESS-MS 14 can be tracked NOW for your location showing map with azimuth and elevation plus other details from your city location.

Track the satellite on the map from your city or location and see movement details for azimuth, elevation, latitude, longitude, range, height, and movement on the map or in text.







IsCatalogInMostPopularTable: catalog: 45595, numindb: 14
Update: records affected: 1



GetName: 45595 PROGRESS-MS 14

Hit Count: updated at: Sat, 30 May 2020 16:13:10 GMT